Tracking 18945 objects as of 21-Jan-2018
HD Live streaming from Space Station
objects crossing your sky now

FENGYUN 1C DEB

Track FENGYUN 1C DEB now!
10-day predictions


NORAD ID: 30024
Int'l Code: 1999-025MZ
Perigee: 440.8 km
Apogee: 712.1 km
Inclination: 98.7 °
Period: 96.1 minutes
Semi major axis: 6947 km
RCS: 0.033 m2 (small)
Launch date: May 10, 1999
Source: People's Republic of China (PRC)
Launch site: Taiyaun Space Center, China (TSC)

Note: This is SATELLITE DEBRIS
aabbcc
Your satellite tracking list
Your tracking list is empty




NASA's NSSDC Master Catalog

Two Line Element Set (TLE):
1 30024U 99025MZ  18019.80778221 +.00000898 +00000-0 +54623-4 0  9997
2 30024 098.7079 035.9765 0195262 103.5907 258.7143 14.99204793595036
Source of the keplerian elements: AFSPC